• In Belarus
  • List of Countries
  • For 7 days
  • Water Temperature
  • Satellite Maps
  • Weather Map
  • Weather Widgets
  • user-avatar
    Login

    Hourly Weather Diapaga

    Today, 20 September, Thursday

    Time Temperature Precipitation Wind Pressure Humidity
    00:00 +28°C° 0 mm 1 mps 735 mmHg 72%
    01:00 +27°C° 0 mm 1 mps 735 mmHg 74%
    02:00 +27°C° 0 mm 1 mps 734 mmHg 75%
    03:00 +27°C° 0 mm 1 mps 734 mmHg 77%
    04:00 +27°C° 0 mm 1 mps 734 mmHg 78%
    05:00 +26°C° 0 mm 1 mps 734 mmHg 79%
    06:00 +26°C° 0 mm 1 mps 734 mmHg 79%
    07:00 +28°C° 0 mm 1 mps 735 mmHg 71%
    08:00 +31°C° 0 mm 2 mps 735 mmHg 63%
    09:00 +34°C° 0 mm 2 mps 735 mmHg 55%
    10:00 +36°C° 0 mm 2 mps 735 mmHg 49%
    11:00 +37°C° 0 mm 2 mps 735 mmHg 42%
    12:00 +39°C° 0 mm 2 mps 735 mmHg 36%
    13:00 +39°C° 0 mm 3 mps 734 mmHg 34%
    14:00 +40°C° 0 mm 3 mps 733 mmHg 32%
    15:00 +40°C° 0 mm 3 mps 732 mmHg 30%
    16:00 +38°C° 0 mm 3 mps 732 mmHg 35%
    17:00 +36°C° 0 mm 2 mps 732 mmHg 40%
    18:00 +34°C° 0 mm 2 mps 732 mmHg 45%
    19:00 +34°C° 0 mm 2 mps 732 mmHg 48%
    20:00 +32°C° 0 mm 2 mps 733 mmHg 52%
    21:00 +31°C° 0 mm 2 mps 733 mmHg 55%
    22:00 +30°C° 0 mm 2 mps 733 mmHg 59%
    23:00 +30°C° 0 mm 2 mps 733 mmHg 62%

    Tomorrow, 21 September, Friday

    Time Temperature Precipitation Wind Pressure Humidity
    00:00 +29°C° 0 mm 2 mps 734 mmHg 66%
    01:00 +29°C° 0 mm 2 mps 733 mmHg 68%
    02:00 +28°C° 0 mm 2 mps 733 mmHg 71%
    03:00 +28°C° 0 mm 2 mps 732 mmHg 73%
    04:00 +28°C° 0 mm 2 mps 733 mmHg 75%
    05:00 +27°C° 0 mm 2 mps 733 mmHg 77%
    06:00 +27°C° 0 mm 2 mps 733 mmHg 79%
    07:00 +29°C° 0 mm 3 mps 734 mmHg 73%
    08:00 +31°C° 0 mm 3 mps 734 mmHg 67%
    09:00 +34°C° 0 mm 3 mps 735 mmHg 60%
    10:00 +36°C° 0 mm 3 mps 735 mmHg 54%
    11:00 +37°C° 0 mm 2 mps 734 mmHg 48%
    12:00 +39°C° 0 mm 2 mps 734 mmHg 42%
    13:00 +39°C° 0 mm 2 mps 733 mmHg 39%
    14:00 +40°C° 0 mm 2 mps 732 mmHg 37%
    15:00 +40°C° 0 mm 1 mps 731 mmHg 35%
    16:00 +38°C° 0 mm 2 mps 732 mmHg 41%
    17:00 +37°C° 0 mm 2 mps 732 mmHg 46%
    18:00 +35°C° 0 mm 2 mps 732 mmHg 52%
    19:00 +34°C° 0.3 mm 3 mps 732 mmHg 58%
    20:00 +33°C° 0.3 mm 3 mps 733 mmHg 63%
    21:00 +32°C° 0.3 mm 4 mps 733 mmHg 69%
    22:00 +30°C° 1 mm 3 mps 733 mmHg 74%
    23:00 +29°C° 1 mm 3 mps 734 mmHg 79%

    Day after tomorrow, 22 September, Saturday

    Time Temperature Precipitation Wind Pressure Humidity
    00:00 +28°C° 1 mm 2 mps 734 mmHg 84%
    01:00 +28°C° 0.1 mm 3 mps 734 mmHg 84%
    02:00 +27°C° 0.1 mm 3 mps 733 mmHg 85%
    03:00 +27°C° 0.1 mm 3 mps 733 mmHg 85%
    04:00 +27°C° 0 mm 3 mps 733 mmHg 86%
    05:00 +27°C° 0 mm 3 mps 733 mmHg 87%
    06:00 +27°C° 0 mm 3 mps 733 mmHg 88%
    07:00 +28°C° 0 mm 3 mps 734 mmHg 81%
    08:00 +30°C° 0 mm 4 mps 735 mmHg 74%
    09:00 +32°C° 0 mm 4 mps 736 mmHg 67%
    10:00 +34°C° 0 mm 4 mps 735 mmHg 61%
    11:00 +35°C° 0 mm 4 mps 735 mmHg 56%
    12:00 +37°C° 0 mm 4 mps 735 mmHg 50%
    13:00 +36°C° 0.4 mm 3 mps 734 mmHg 51%
    14:00 +36°C° 0.4 mm 3 mps 733 mmHg 51%
    15:00 +36°C° 0.4 mm 2 mps 733 mmHg 52%
    16:00 +35°C° 0 mm 2 mps 733 mmHg 56%
    17:00 +34°C° 0 mm 2 mps 732 mmHg 60%
    18:00 +32°C° 0 mm 2 mps 732 mmHg 65%
    19:00 +30°C° 1.3 mm 2 mps 733 mmHg 71%
    20:00 +29°C° 1.3 mm 2 mps 734 mmHg 78%
    21:00 +28°C° 1.3 mm 2 mps 735 mmHg 84%
    22:00 +28°C° 0.1 mm 2 mps 734 mmHg 85%
    23:00 +28°C° 0.1 mm 3 mps 734 mmHg 86%

    23 September, Sunday

    Time Temperature Precipitation Wind Pressure Humidity
    00:00 +27°C° 0.1 mm 3 mps 734 mmHg 87%
    01:00 +27°C° 0 mm 3 mps 734 mmHg 87%
    02:00 +27°C° 0 mm 2 mps 733 mmHg 88%
    03:00 +26°C° 0 mm 2 mps 733 mmHg 89%
    04:00 +26°C° 0.1 mm 2 mps 734 mmHg 89%
    05:00 +26°C° 0.1 mm 2 mps 734 mmHg 89%
    06:00 +26°C° 0.1 mm 2 mps 734 mmHg 89%
    07:00 +28°C° 0 mm 2 mps 735 mmHg 81%
    08:00 +30°C° 0 mm 3 mps 735 mmHg 74%
    09:00 +32°C° 0 mm 4 mps 736 mmHg 67%
    10:00 +34°C° 0 mm 3 mps 736 mmHg 60%
    11:00 +36°C° 0 mm 3 mps 735 mmHg 54%
    12:00 +37°C° 0 mm 2 mps 735 mmHg 48%
    13:00 +37°C° 0.3 mm 3 mps 734 mmHg 50%
    14:00 +36°C° 0.3 mm 3 mps 734 mmHg 52%
    15:00 +35°C° 0.3 mm 4 mps 733 mmHg 54%
    16:00 +33°C° 0.7 mm 3 mps 733 mmHg 63%
    17:00 +31°C° 0.7 mm 3 mps 733 mmHg 71%
    18:00 +29°C° 0.7 mm 3 mps 733 mmHg 79%
    19:00 +28°C° 0.1 mm 3 mps 734 mmHg 81%
    20:00 +28°C° 0.1 mm 3 mps 734 mmHg 82%
    21:00 +27°C° 0.1 mm 3 mps 735 mmHg 83%
    22:00 +27°C° 0 mm 3 mps 734 mmHg 83%
    23:00 +27°C° 0 mm 3 mps 734 mmHg 83%

    24 September, Monday

    Time Temperature Precipitation Wind Pressure Humidity
    00:00 +26°C° 0 mm 2 mps 734 mmHg 82%
    01:00 +26°C° 0.5 mm 2 mps 734 mmHg 84%
    02:00 +25°C° 0.5 mm 2 mps 733 mmHg 86%
    03:00 +25°C° 0.5 mm 1 mps 733 mmHg 88%
    04:00 +25°C° 0.1 mm 2 mps 734 mmHg 89%
    05:00 +25°C° 0.1 mm 2 mps 734 mmHg 89%
    06:00 +25°C° 0.1 mm 2 mps 735 mmHg 90%
    07:00 +26°C° 0.2 mm 2 mps 735 mmHg 83%
    08:00 +28°C° 0.2 mm 3 mps 736 mmHg 77%
    09:00 +29°C° 0.2 mm 3 mps 736 mmHg 70%
    10:00 +31°C° 0 mm 3 mps 736 mmHg 62%
    11:00 +34°C° 0 mm 3 mps 735 mmHg 53%
    12:00 +36°C° 0 mm 3 mps 735 mmHg 45%
    13:00 +37°C° 0 mm 3 mps 734 mmHg 45%
    14:00 +37°C° 0 mm 3 mps 733 mmHg 45%
    15:00 +37°C° 0 mm 3 mps 733 mmHg 45%
    16:00 +35°C° 0 mm 3 mps 733 mmHg 50%
    17:00 +34°C° 0 mm 3 mps 733 mmHg 55%
    18:00 +31°C° 0 mm 2 mps 733 mmHg 60%
    19:00 +31°C° 0 mm 3 mps 734 mmHg 63%
    20:00 +30°C° 0 mm 3 mps 734 mmHg 65%
    21:00 +29°C° 0 mm 3 mps 735 mmHg 68%
    22:00 +29°C° 0.2 mm 3 mps 735 mmHg 72%
    23:00 +28°C° 0.2 mm 3 mps 734 mmHg 75%

    25 September, Tuesday

    Time Temperature Precipitation Wind Pressure Humidity
    00:00 +27°C° 0.2 mm 2 mps 734 mmHg 79%
    01:00 +27°C° 0 mm 3 mps 734 mmHg 80%
    02:00 +27°C° 0 mm 3 mps 733 mmHg 80%
    03:00 +27°C° 0 mm 3 mps 733 mmHg 81%
    04:00 +27°C° 0 mm 3 mps 733 mmHg 82%
    05:00 +27°C° 0 mm 3 mps 733 mmHg 83%
    06:00 +26°C° 0 mm 3 mps 734 mmHg 84%
    07:00 +28°C° 0 mm 3 mps 734 mmHg 77%
    08:00 +30°C° 0 mm 3 mps 735 mmHg 70%
    09:00 +33°C° 0 mm 3 mps 736 mmHg 63%
    10:00 +34°C° 0 mm 3 mps 735 mmHg 56%
    11:00 +36°C° 0 mm 3 mps 734 mmHg 50%
    12:00 +38°C° 0 mm 2 mps 734 mmHg 44%
    13:00 +38°C° 0 mm 2 mps 733 mmHg 42%
    14:00 +39°C° 0 mm 2 mps 732 mmHg 40%
    15:00 +39°C° 0 mm 2 mps 731 mmHg 38%
    16:00 +38°C° 0 mm 2 mps 732 mmHg 42%
    17:00 +35°C° 0 mm 1 mps 732 mmHg 46%
    18:00 +34°C° 0 mm 1 mps 732 mmHg 50%
    19:00 +34°C° 0.1 mm 2 mps 733 mmHg 54%
    20:00 +32°C° 0.1 mm 2 mps 733 mmHg 58%
    21:00 +31°C° 0.1 mm 2 mps 734 mmHg 61%
    22:00 +30°C° 0.7 mm 2 mps 734 mmHg 70%
    23:00 +28°C° 0.7 mm 3 mps 734 mmHg 80%
    Show more